Location: Buckland
(65.9785°N, 161.1281°W)
Time: 06:04:26
(UTC+00:00)

Transit 2A Rocket - Pass Details

Date: 02 December 2020
Orbit: 592 x 910 km, 66.7° (Epoch: 21 January)

Event Time Altitude Azimuth Distance (km) Brightness Sun altitude
Exits shadow 14:54:57 60° 81° (E) 878 5.4 -30.1°
Drops below altitude 10° 14:59:06 10° 73° (ENE) 2,230 8.3 -29.7°
Sets 15:01:21 0° 73° (ENE) 3,102 9.4 -29.5°
